Time,TemperatureF,DewpointF,PressureIn,WindDirection,WindDirectionDegrees,WindSpeedMPH,WindSpeedGustMPH,Humidity,HourlyPrecipIn,Conditions,Clouds,dailyrainin,SoftwareType,DateUTC
2013-02-15 00:07:00,11.5,7.0,25.99,WNW,297,2.0,4.0,81,0.00,,,0.00,weatherlink.com 1.10,2013-02-15 07:07:00,
2013-02-15 00:22:00,11.2,7.0,25.99,WNW,291,3.0,4.0,82,0.00,,,0.00,weatherlink.com 1.10,2013-02-15 07:22:00,
2013-02-15 00:37:00,10.8,6.0,25.99,NW,307,4.0,6.0,82,0.00,,,0.00,weatherlink.com 1.10,2013-02-15 07:37:00,
2013-02-15 00:52:00,10.9,7.0,25.98,NW,304,6.0,9.0,83,0.00,,,0.00,weatherlink.com 1.10,2013-02-15 07:52:00,
2013-02-15 01:07:00,12.3,8.0,25.98,WNW,302,7.0,10.0,81,0.00,,,0.00,weatherlink.com 1.10,2013-02-15 08:07:00,
2013-02-15 01:23:00,12.4,8.0,25.98,WNW,300,9.0,10.0,82,0.00,,,0.00,weatherlink.com 1.10,2013-02-15 08:23:00,
2013-02-15 01:38:00,12.5,7.0,25.98,NW,314,6.0,11.0,79,0.00,,,0.00,weatherlink.com 1.10,2013-02-15 08:38:00,
2013-02-15 01:53:00,12.1,7.0,25.98,WNW,302,6.0,10.0,80,0.00,,,0.00,weatherlink.com 1.10,2013-02-15 08:53:00,
2013-02-15 02:08:00,13.0,7.0,25.98,WNW,297,5.0,11.0,78,0.00,,,0.00,weatherlink.com 1.10,2013-02-15 09:08:00,
2013-02-15 02:23:00,12.6,8.0,25.98,WNW,295,4.0,7.0,80,0.00,,,0.00,weatherlink.com 1.10,2013-02-15 09:23:00,
2013-02-15 02:38:00,11.8,7.0,25.97,WNW,299,3.0,7.0,81,0.00,,,0.00,weatherlink.com 1.10,2013-02-15 09:38:00,
2013-02-15 02:53:00,11.8,7.0,25.97,NW,310,6.0,8.0,82,0.00,,,0.00,weatherlink.com 1.10,2013-02-15 09:53:00,
2013-02-15 03:08:00,12.6,8.0,25.97,NW,308,5.0,8.0,81,0.00,,,0.00,weatherlink.com 1.10,2013-02-15 10:08:00,
2013-02-15 03:23:00,13.4,8.0,25.96,NW,314,5.0,9.0,79,0.00,,,0.00,weatherlink.com 1.10,2013-02-15 10:23:00,
2013-02-15 03:38:00,14.8,9.0,25.97,NW,304,2.0,6.0,78,0.00,,,0.00,weatherlink.com 1.10,2013-02-15 10:38:00,
2013-02-15 03:53:00,14.8,9.0,25.96,WNW,287,3.0,7.0,77,0.00,,,0.00,weatherlink.com 1.10,2013-02-15 10:53:00,
2013-02-15 04:08:00,14.8,9.0,25.97,WNW,293,2.0,8.0,77,0.00,,,0.00,weatherlink.com 1.10,2013-02-15 11:08:00,
2013-02-15 04:23:00,14.6,8.0,25.97,NNW,347,5.0,8.0,76,0.00,,,0.00,weatherlink.com 1.10,2013-02-15 11:23:00,
2013-02-15 04:38:00,15.4,9.0,25.97,NW,307,5.0,7.0,76,0.00,,,0.00,weatherlink.com 1.10,2013-02-15 11:38:00,
2013-02-15 04:53:00,15.8,9.0,25.98,WNW,300,5.0,9.0,75,0.00,,,0.00,weatherlink.com 1.10,2013-02-15 11:53:00,
2013-02-15 05:08:00,14.5,8.0,25.98,WNW,301,6.0,8.0,76,0.00,,,0.00,weatherlink.com 1.10,2013-02-15 12:08:00,
2013-02-15 05:23:00,13.7,8.0,25.97,West,278,3.0,7.0,78,0.00,,,0.00,weatherlink.com 1.10,2013-02-15 12:23:00,
2013-02-15 05:38:00,13.2,8.0,25.97,WNW,288,2.0,5.0,79,0.00,,,0.00,weatherlink.com 1.10,2013-02-15 12:38:00,
2013-02-15 05:53:00,13.1,7.0,25.97,WNW,299,3.0,7.0,78,0.00,,,0.00,weatherlink.com 1.10,2013-02-15 12:53:00,
2013-02-15 06:08:00,12.7,7.0,25.97,WNW,287,3.0,5.0,78,0.00,,,0.00,weatherlink.com 1.10,2013-02-15 13:08:00,
2013-02-15 06:23:00,12.1,6.0,25.97,WNW,287,5.0,7.0,77,0.00,,,0.00,weatherlink.com 1.10,2013-02-15 13:23:00,
2013-02-15 06:38:00,12.2,6.0,25.97,WNW,299,5.0,8.0,77,0.00,,,0.00,weatherlink.com 1.10,2013-02-15 13:38:00,
2013-02-15 06:53:00,12.4,7.0,25.97,WNW,297,4.0,9.0,78,0.00,,,0.00,weatherlink.com 1.10,2013-02-15 13:53:00,
2013-02-15 07:08:00,13.5,7.0,25.98,WNW,302,4.0,7.0,76,0.00,,,0.00,weatherlink.com 1.10,2013-02-15 14:08:00,
2013-02-15 07:23:00,13.6,8.0,25.97,WNW,297,4.0,6.0,78,0.00,,,0.00,weatherlink.com 1.10,2013-02-15 14:23:00,
2013-02-15 07:38:00,15.1,9.0,25.98,WNW,302,6.0,8.0,78,0.00,,,0.00,weatherlink.com 1.10,2013-02-15 14:38:00,
2013-02-15 07:53:00,16.6,11.0,25.99,WNW,299,4.0,10.0,77,0.00,,,0.00,weatherlink.com 1.10,2013-02-15 14:53:00,
2013-02-15 08:08:00,17.7,12.0,25.99,WNW,302,5.0,7.0,77,0.00,,,0.00,weatherlink.com 1.10,2013-02-15 15:08:00,
2013-02-15 08:23:00,18.7,12.0,25.99,WNW,296,3.0,9.0,76,0.00,,,0.00,weatherlink.com 1.10,2013-02-15 15:23:00,
2013-02-15 08:38:00,19.8,14.0,26.00,NNW,327,5.0,7.0,77,0.00,,,0.00,weatherlink.com 1.10,2013-02-15 15:38:00,
2013-02-15 08:53:00,21.4,15.0,26.00,North,355,3.0,9.0,75,0.00,,,0.00,weatherlink.com 1.10,2013-02-15 15:53:00,
2013-02-15 09:08:00,22.4,17.0,26.01,ENE,60,8.0,12.0,79,0.00,,,0.00,weatherlink.com 1.10,2013-02-15 16:08:00,
2013-02-15 09:23:00,22.7,17.0,26.01,NNE,18,9.0,12.0,79,0.00,,,0.00,weatherlink.com 1.10,2013-02-15 16:23:00,
2013-02-15 09:38:00,23.1,18.0,26.01,NE,56,5.0,9.0,79,0.00,,,0.00,weatherlink.com 1.10,2013-02-15 16:38:00,
2013-02-15 09:53:00,23.0,17.0,26.01,NNW,338,7.0,12.0,76,0.00,,,0.00,weatherlink.com 1.10,2013-02-15 16:53:00,
2013-02-15 10:08:00,22.9,17.0,26.02,NE,46,6.0,11.0,79,0.00,,,0.00,weatherlink.com 1.10,2013-02-15 17:08:00,
2013-02-15 10:23:00,22.4,18.0,26.01,NNW,346,7.0,10.0,82,0.00,,,0.00,weatherlink.com 1.10,2013-02-15 17:23:00,
2013-02-15 10:38:00,22.3,18.0,26.02,ENE,70,6.0,9.0,82,0.00,,,0.00,weatherlink.com 1.10,2013-02-15 17:38:00,
2013-02-15 10:53:00,22.8,18.0,26.02,NNE,30,5.0,11.0,82,0.00,,,0.00,weatherlink.com 1.10,2013-02-15 17:53:00,
2013-02-15 11:08:00,23.1,18.0,26.02,NNE,23,6.0,10.0,80,0.00,,,0.00,weatherlink.com 1.10,2013-02-15 18:08:00,
2013-02-15 11:23:00,23.8,18.0,26.02,NE,49,9.0,10.0,77,0.00,,,0.00,weatherlink.com 1.10,2013-02-15 18:23:00,
2013-02-15 11:38:00,24.2,18.0,26.02,NNW,343,6.0,8.0,78,0.00,,,0.00,weatherlink.com 1.10,2013-02-15 18:38:00,
2013-02-15 11:54:00,25.2,18.0,26.02,North,351,4.0,9.0,75,0.00,,,0.00,weatherlink.com 1.10,2013-02-15 18:54:00,
2013-02-15 12:09:00,25.8,19.0,26.01,NNW,342,5.0,8.0,74,0.00,,,0.00,weatherlink.com 1.10,2013-02-15 19:09:00,